Home   Weather   Mülheim   Past weeks

Flag for Germany Past Weather in Mülheim, North Rhine-Westphalia, Germany — Yesterday and Last 2 Weeks

Now
64 °F

Passing clouds.


Feels Like: 64 °F
Forecast: 57 / 71 °F
Wind: 2 mph from Northeast

Location: Koeln / Bonn

Current Time: Jul 27, 2017 at 11:01:27 pm

Latest Report: Jul 27, 2017 at 10:20 pm


Visibility: N/A

Pressure: 29.74 "Hg

Humidity: 78%

Dew Point: 57 °F

Location of MülheimLocation

Past Weather in Mülheim — Graph

°F

Mülheim Temperature Yesterday

Maximum temperature yesterday: 73 °F (at 5:50 pm)
Minimum temperature yesterday: 59 °F (at 12:20 am)
Average temperature yesterday: 64 °F

High & Low Weather Summary for the Past Weeks

 TemperatureHumidityPressure
High90 °F (Jul 19, 2:20 pm)100% (Jul 13, 3:20 am)30.24 "Hg (Jul 13, 3:20 am)
Low45 °F (Jul 13, 4:50 am)38% (Jul 14, 1:50 pm)29.71 "Hg (Jul 27, 6:50 pm)
Average65 °F75%29.96 "Hg
* Reported Jul 12 9:20 pm — Jul 27 9:50 pm, Mülheim. Weather by CustomWeather, © 2017

Note: Actual official high and low records may vary slightly from our data, if they occured in-between our weather recording intervals... More about our weather records

Advertising

Mülheim Weather History for the Previous 24 Hours

Scroll right to see more
 ConditionsComfort  
Time TempWeatherWind HumidityBarometerVisibility
9:50 pm
Thu, Jul 27
64 °FPartly cloudy.5 mph78%29.74 "HgN/A
9:20 pm66 °FBroken clouds.5 mph73%29.74 "HgN/A
8:50 pm66 °FBroken clouds.5 mph73%29.74 "HgN/A
8:20 pm68 °FPartly sunny.8 mph69%29.74 "HgN/A
7:50 pm70 °FBroken clouds.3 mph69%29.74 "HgN/A
7:20 pm70 °FPartly sunny.6 mph60%29.74 "HgN/A
6:50 pm72 °FScattered clouds.6 mph61%29.71 "HgN/A
6:20 pm72 °FPartly sunny.7 mph57%29.74 "HgN/A
5:50 pm72 °FPartly sunny.6 mph57%29.74 "HgN/A
5:20 pm70 °FPartly sunny.8 mph60%29.74 "HgN/A
4:50 pm72 °FPartly sunny.12 mph57%29.74 "HgN/A
4:20 pm72 °FBroken clouds.9 mph61%29.77 "HgN/A
3:50 pm70 °FBroken clouds.13 mph64%29.77 "HgN/A
3:20 pm70 °FBroken clouds.10 mph64%29.77 "HgN/A
2:50 pm70 °FSprinkles. Broken clouds.16 mph69%29.77 "HgN/A
2:20 pm70 °FBroken clouds.14 mph69%29.77 "HgN/A
1:50 pm70 °FPartly sunny.14 mph64%29.77 "HgN/A
1:20 pm68 °FPartly sunny.12 mph69%29.77 "HgN/A
12:50 pm68 °FPartly sunny.12 mph69%29.77 "HgN/A
12:20 pm70 °FPartly sunny.10 mph69%29.77 "HgN/A
11:50 am68 °FPartly sunny.6 mph73%29.77 "HgN/A
11:20 am68 °FLight rain. Partly sunny.6 mph73%29.77 "HgN/A
10:50 am66 °FLight rain. Partly sunny.9 mph78%29.77 "HgN/A
10:20 am66 °FBroken clouds.14 mph78%29.77 "HgN/A
10:01 am66 °FBroken clouds.6 mph83%29.77 "HgN/A
9:50 am66 °FBroken clouds.6 mph83%29.77 "HgN/A
9:20 am64 °FBroken clouds.6 mph94%29.77 "HgN/A
8:50 am64 °FDrizzle. Broken clouds.7 mph94%29.77 "HgN/A
8:20 am64 °FBroken clouds.8 mph94%29.77 "HgN/A
7:50 am64 °FBroken clouds.9 mph94%29.74 "HgN/A
7:20 am63 °FPartly sunny.8 mph94%29.77 "HgN/A
6:50 am63 °FPartly sunny.8 mph94%29.77 "HgN/A
6:20 am63 °FPartly sunny.7 mph94%29.77 "HgN/A
5:50 am61 °FDrizzle. Partly sunny.7 mph100%29.77 "HgN/A
5:20 am61 °FLight rain. Partly cloudy.5 mph100%29.77 "HgN/A
5:05 am63 °FLight rain. Partly cloudy.5 mph94%29.77 "HgN/A
4:50 am63 °FLight rain. Partly cloudy.5 mph94%29.77 "HgN/A
4:20 am63 °FLight rain. Passing clouds.6 mph88%29.77 "HgN/A
3:50 am64 °FPassing clouds.6 mph83%29.77 "HgN/A
3:20 am64 °FPassing clouds.6 mph83%29.77 "HgN/A
2:50 am64 °FPassing clouds.6 mph83%29.77 "HgN/A
2:20 am64 °FPassing clouds.6 mph83%29.77 "HgN/A
1:50 am64 °FLight rain. Passing clouds.6 mph83%29.80 "HgN/A
1:20 am64 °FPartly cloudy.5 mph83%29.80 "HgN/A
12:50 am66 °FLight rain. Passing clouds.8 mph73%29.80 "HgN/A
12:20 am66 °FPartly cloudy.5 mph73%29.80 "HgN/A
11:50 pm
Wed, Jul 26
64 °FPassing clouds.8 mph78%29.80 "HgN/A
11:20 pm64 °FClear.8 mph73%29.80 "Hg10 mi
Weather by CustomWeather, © 2017

See weather overviewHow to use our weather pages